Terminal Aerodrome Forecast
Issued by NWS Portland, OR

Home | Current Version | Previous Version | Text Only | Print | Product List | Glossary On
Versions: 1 2 3 4 5 6 7 8 9 10 11 12 13 14 15 16 17 18 19 20 21 22 23 24 25
000
FTUS46 KPQR 280202 AAA
TAFPDX
TAF AMD
KPDX 280202Z 2802/2824 34008KT P6SM SCT050 SCT250
     FM280900 32005KT P6SM OVC020
     FM281500 34004KT P6SM BKN025
     FM281700 35003KT P6SM SCT025 BKN040
     FM282000 31007KT P6SM SCT050 SCT250=

USA.gov is the U.S. government's official web portal to all federal, state and local government web resources and services.